Skip Page Navigation
NASA JPL Caltech
NASA Logo - Jet Propulsion Laboratory + View the NASA Portal
+ Center for Near-Earth Object Studies
JPL Home Earth Solar System Stars & Galaxies Technology
JPL Solar System Dynamics
BODIES ORBITS EPHEMERIDES TOOLS PHYSICAL DATA DISCOVERY FAQ SITE MAP
JPL Small-Body Database Browser
Search: [ help ]  
32325 (2000 QG62)
Classification: Main-belt Asteroid          SPK-ID: 2032325
Ephemeris | Orbit Diagram | Orbital Elements | Mission Design | Physical Parameters | Discovery Circumstances | Close-Approach Data ]

[ show orbit diagram ]
Orbital Elements at Epoch 2459000.5 (2020-May-31.0) TDB
Reference: JPL 26 (heliocentric ecliptic J2000)
 Element Value Uncertainty (1-sigma)   Units 
e .0756311914291603 4.232e-08  
a 3.136457187029447 2.0453e-08 au
q 2.899243193107857 1.3354e-07 au
i 7.192450527587684 4.4363e-06 deg
node 71.29171237132424 3.8262e-05 deg
peri 268.1563919727676 4.902e-05 deg
M 203.9614345344479 3.202e-05 deg
tp 2459879.900930297992
(2022-Oct-27.40093030)
0.00018227 TDB
period 2028.885192341556
5.55
1.9846e-05
5.434e-08
d
yr
n .1774373440936401 1.7356e-09 deg/d
Q 3.373671180951037 2.2e-08 au
  Orbit Determination Parameters
   # obs. used (total)      1585  
   data-arc span      8071 days (22.10 yr)  
   first obs. used      1998-03-24  
   last obs. used      2020-04-28  
   planetary ephem.      DE431  
   SB-pert. ephem.      SB431-N16  
   condition code      0  
   norm. resid. RMS      .52611  
   source      ORB  
   producer      Otto Matic  
   solution date      2020-May-20 07:24:58  

Additional Information
 Earth MOID = 1.90227 au 
 Jupiter MOID = 1.93751 au 
 T_jup = 3.195 
[ show covariance matrix ]

Ephemeris | Orbit Diagram | Orbital Elements | Mission Design | Physical Parameters | Discovery Circumstances | Close-Approach Data ]

Physical Parameter Table
Parameter Symbol Value Units Sigma Reference Notes
absolute magnitude H 13.4   n/a MPO337526  
diameter diameter 11.013 km 0.213 urn:nasa:pds:neowise_diameters_albedos::2.0[mainbelt] (http://adsabs.harvard.edu/abs/2011ApJ...741...68M)  
geometric albedo albedo 0.042   0.010 urn:nasa:pds:neowise_diameters_albedos::2.0[mainbelt] (http://adsabs.harvard.edu/abs/2012ApJ...759L...8M)  

32325 (2000 QG62)          Discovered 2000-Aug-28 by LINEAR at Socorro
Reference: 20011130/Numbers.arcLast Updated: 2004-04-19

[ show close-approach data ]
Ephemeris | Orbit Diagram | Orbital Elements | Mission Design | Physical Parameters | Discovery Circumstances | Close-Approach Data ]
ABOUT SSD CREDITS/AWARDS PRIVACY/COPYRIGHT GLOSSARY LINKS
FirstGov 2020-Aug-11 17:30 UT
(server date/time)  
NASA Home Page
Site Manager:   Ryan S. Park
Webmaster  Alan B. Chamberlin